Home   Weather   Washington DC   Past weeks

Flag for USA Past Weather in Washington DC, USA — Yesterday and Last 2 Weeks

Now
79 °F

Scattered clouds.


Feels Like: 80 °F
Forecast: 59 / 76 °F
Wind: 13 mph from South

Location: Reagan National Airport

Current Time: Jun 26, 2017 at 8:19:45 pm

Latest Report: Jun 26, 2017 at 7:52 pm


Visibility: 10 mi

Pressure: 29.98 "Hg

Humidity: 44%

Dew Point: 55 °F

Location of Washington DCLocation

Past Weather in Washington DC — Graph

°F

Washington DC Temperature Yesterday

Maximum temperature yesterday: 87 °F (at 2:52 pm)
Minimum temperature yesterday: 72 °F (at 5:52 am)
Average temperature yesterday: 80 °F

High & Low Weather Summary for the Past Weeks

 TemperatureHumidityPressure
High95 °F (Jun 12, 2:52 pm)97% (Jun 16, 9:58 pm)30.12 "Hg (Jun 16, 9:58 pm)
Low69 °F (Jun 26, 5:52 am)25% (Jun 26, 9:52 am)29.58 "Hg (Jun 24, 3:52 am)
Average80 °F68%29.93 "Hg
* Reported Jun 11 6:52 pm — Jun 26 6:52 pm, Washington DC. Weather by CustomWeather, © 2017

Note: Actual official high and low records may vary slightly from our data, if they occured in-between our weather recording intervals... More about our weather records

Advertising

Washington DC Weather History for the Previous 24 Hours

Scroll right to see more
 ConditionsComfort  
Time TempWeatherWind HumidityBarometerVisibility
6:52 pm
Mon, Jun 26
80 °FScattered clouds.9 mph34%29.99 "Hg10 mi
5:52 pm83 °FPartly sunny.10 mph31%29.99 "Hg10 mi
4:52 pm83 °FScattered clouds.12 mph27%30.02 "Hg10 mi
3:52 pm84 °FScattered clouds.14 mph26%30.03 "Hg10 mi
2:52 pm82 °FScattered clouds.5 mph27%30.05 "Hg10 mi
1:52 pm81 °FScattered clouds.10 mph27%30.06 "Hg10 mi
12:52 pm81 °FScattered clouds.N/A26%30.07 "Hg10 mi
11:52 am80 °FScattered clouds.10 mph28%30.09 "Hg10 mi
10:52 am79 °FPassing clouds.13 mph26%30.10 "Hg10 mi
9:52 am78 °FPassing clouds.7 mph25%30.09 "Hg10 mi
8:52 am77 °FPassing clouds.13 mph33%30.09 "Hg10 mi
7:52 am73 °FPassing clouds.6 mph48%30.09 "Hg10 mi
6:52 am69 °FPassing clouds.8 mph53%30.09 "Hg10 mi
5:52 am69 °FPassing clouds.8 mph51%30.07 "Hg10 mi
4:52 am70 °FPassing clouds.10 mph46%30.06 "Hg10 mi
3:52 am72 °FPassing clouds.9 mph41%30.05 "Hg10 mi
2:52 am73 °FPassing clouds.8 mph38%30.05 "Hg10 mi
1:52 am72 °FPassing clouds.7 mph40%30.05 "Hg10 mi
12:52 am75 °FPassing clouds.7 mph34%30.05 "Hg10 mi
11:52 pm
Sun, Jun 25
76 °FPassing clouds.8 mph33%30.04 "Hg10 mi
10:52 pm76 °FPassing clouds.5 mph35%30.04 "Hg10 mi
9:52 pm78 °FPartly cloudy.8 mph32%30.03 "Hg10 mi
8:52 pm79 °FPassing clouds.10 mph31%30.02 "Hg10 mi
Weather by CustomWeather, © 2017

See weather overviewHow to use our weather pages